Location: Boiro
(42.6475°N, 8.8834°W)
Time: 18:02:31
(UTC+01:00)

Explorer 11/Cluster Stage 4 - Pass Details

Date: 05 December 2021
Orbit: 467 x 1255 km, 28.8° (Epoch: 23 January)

Event Time Altitude Azimuth Distance (km) Brightness Sun altitude
Exits shadow 06:01:14 26° 195° (SSW) 2,104 8.6 -30.3°
Maximum altitude 06:01:59 26° 186° (S) 2,104 8.7 -30.1°
Drops below altitude 10° 06:08:17 10° 134° (SE) 3,185 10.3 -29.0°
Sets 06:11:49 0° 123° (ESE) 4,184 11.2 -28.3°
